Downstream station:
SHEF ID: ENWK1 CROOKED C NR ENGLEWOOD, KS
STATION TYPE:
Regulating: Stage = 6.50, Flow = 243
PRECIP STAGE RIV-FLOW BAT-LOAD
in ft cfs volt
Ccp-Rev Ccp-Rev Ccp-Rev Ccp-Rev
(US/Central)
12/26 00:00 0.00 2.42 3 12.89
12/26 01:00 0.00 2.41 3 12.89
12/26 02:00 0.00 2.42 3 12.89
12/26 03:00 0.00 2.42 3 12.89
12/26 04:00 0.00 2.42 3 12.89
12/26 05:00 0.00 2.42 3 12.83
12/26 06:00 0.00 2.42 3 12.77
12/26 07:00 0.00 2.42 3 12.71
12/26 08:00 0.00 2.42 3 12.71
12/26 09:00 0.00 2.42 3 12.71
12/26 10:00 0.00 2.41 3 13.12
12/26 11:00 0.00 2.42 3 13.71
12/26 12:00 0.00 2.42 3 13.88
12/26 13:00 0.00 2.43 3 14.06
12/26 14:00 0.00 2.44 4 13.88
12/26 15:00 0.00 2.42 3 13.88
12/26 16:00 0.00 2.43 3 14.06
12/26 17:00 0.00 2.43 3 13.83
12/26 18:00 0.00 2.43 3 13.36
12/26 19:00 0.00 2.43 3 13.12
12/26 20:00 0.00 2.43 3 13.07
12/26 21:00 0.00 2.42 3 13.00
12/26 22:00 0.00 2.42 3 13.00
12/26 23:00 ---- ---- ---- ----